Date,TemperatureHighF,TemperatureAvgF,TemperatureLowF,DewpointHighF,DewpointAvgF,DewpointLowF,HumidityHigh,HumidityAvg,HumidityLow,PressureMaxIn,PressureMinIn,WindSpeedMaxMPH,WindSpeedAvgMPH,GustSpeedMaxMPH,PrecipitationSumIn
2013-1-2,54.7,52.7,48.7,52.1,50.8,47.1,95,93,91,30.30,29.96,10,6,17,0.03
2013-1-3,56.1,52.5,48.0,52.9,50.0,44.9,95,91,87,30.50,30.33,7,4,12,0.03
2013-1-4,51.3,45.6,40.5,48.1,43.9,39.7,98,94,88,30.58,30.34,6,1,9,0.03
2013-1-5,53.7,48.9,42.2,50.2,47.0,41.1,98,93,86,30.39,30.18,5,2,13,0.03
2013-1-6,50.6,48.6,46.9,47.8,47.0,45.6,98,94,88,30.27,30.04,5,1,8,0.03
2013-1-7,54.3,52.4,48.4,52.3,50.8,47.3,97,94,92,30.01,29.96,5,2,9,0.03
2013-1-8,53.6,41.7,37.6,99.9,43.2,34.5,97,90,86,30.18,29.42,16,2,12,0.03
2013-1-10,45.0,39.7,31.8,44.4,38.9,30.9,98,97,95,30.07,29.83,13,3,13,0.11
2013-1-11,46.2,38.9,30.0,45.4,38.2,29.3,98,97,96,29.88,29.70,7,2,7,0.03
2013-1-12,45.7,43.0,38.3,45.0,40.5,33.5,98,91,80,29.94,29.67,13,5,13,0.03
2013-1-13,39.4,36.2,31.3,38.2,34.3,28.9,97,93,84,29.94,29.94,12,4,12,0.06
2013-1-14,43.0,39.6,35.6,40.5,37.6,33.5,97,92,84,29.94,29.77,16,8,16,0.06
2013-1-15,40.5,35.4,31.8,39.0,33.7,30.3,97,94,89,29.83,29.77,13,4,13,0.00
2013-1-16,42.6,41.0,39.6,41.6,38.6,35.9,96,91,86,29.83,29.62,13,5,13,0.19
2013-1-17,46.6,43.9,41.5,45.8,43.0,40.5,98,97,94,29.75,29.47,24,6,24,0.06
2013-1-18,42.3,38.0,36.1,40.7,37.3,35.6,99,97,93,29.47,29.12,25,12,25,1.27
2013-1-19,39.7,37.1,35.8,39.2,36.0,32.1,98,96,84,29.47,29.12,14,6,14,0.17
2013-1-20,37.9,37.3,36.7,33.1,31.9,29.9,85,81,74,29.47,29.27,15,8,15,0.00
2013-1-21,39.0,36.2,31.5,37.7,34.1,30.5,96,92,79,29.27,29.21,12,3,12,0.25
2013-1-22,38.3,32.2,26.8,37.5,31.3,26.0,98,97,96,29.23,29.23,5,0,5,0.06
2013-1-23,40.3,36.9,32.4,36.8,34.6,31.9,98,91,84,29.65,29.23,12,3,12,0.00
2013-1-24,42.3,39.2,36.3,39.7,36.8,34.1,94,91,89,29.84,29.65,16,3,16,0.00
2013-1-25,46.6,44.2,41.7,45.8,42.6,39.6,97,94,91,29.83,29.26,22,9,22,0.80
2013-1-26,54.1,44.1,35.1,51.3,42.1,34.0,97,93,84,29.54,28.92,25,7,25,0.03
2013-1-27,54.1,41.6,37.0,51.6,38.6,34.1,94,89,79,29.30,28.92,31,12,31,0.17
2013-1-28,52.3,44.6,37.0,47.3,40.0,34.1,92,84,75,29.41,29.02,30,13,30,0.06
2013-1-29,58.1,48.6,43.5,53.9,45.1,39.9,95,88,82,29.38,29.08,39,10,39,0.09
2013-1-30,49.3,44.9,42.1,43.6,40.6,37.5,91,85,69,29.73,29.26,26,12,26,0.22
2013-1-31,49.1,44.3,40.8,44.2,39.8,37.3,91,84,78,29.67,29.44,30,12,30,0.22
2013-2-1,45.9,41.7,36.1,42.8,37.5,31.8,90,85,77,29.69,29.36,31,11,31,0.00
2013-2-2,44.8,37.7,33.6,37.0,33.1,30.3,92,84,68,29.69,29.69,12,4,12,0.00
2013-2-3,52.7,48.0,41.4,49.5,46.0,37.2,97,93,85,29.95,29.69,22,10,22,0.08
2013-2-4,50.0,43.7,34.5,48.7,39.0,32.0,96,84,74,29.88,29.60,29,13,29,0.08
2013-2-5,45.0,38.6,32.4,41.1,35.1,29.8,92,87,81,29.62,29.34,33,13,33,0.03
2013-2-6,44.8,39.4,33.6,36.5,33.3,30.8,90,79,62,30.15,29.62,22,9,22,0.00
2013-2-7,45.0,37.7,33.3,43.6,35.8,30.5,96,93,89,30.73,30.15,14,6,14,0.19
2013-2-8,46.6,42.6,39.7,43.7,39.9,36.9,95,90,87,30.86,30.73,13,6,13,0.00
2013-2-9,51.6,45.3,41.2,47.7,43.5,39.9,97,93,84,30.82,30.52,10,4,10,0.11
2013-2-10,45.9,43.7,41.4,45.3,42.9,40.6,98,97,94,30.52,30.06,13,5,13,0.86
2013-2-11,41.9,40.1,39.2,41.2,38.7,37.2,98,95,88,30.49,30.06,11,4,11,0.14
2013-2-12,42.6,40.3,39.0,40.5,38.9,38.0,97,95,91,30.62,30.49,12,4,12,0.17
2013-2-13,54.3,47.4,41.7,51.7,45.9,40.4,97,95,90,30.62,30.48,17,6,17,0.28
2013-2-14,49.8,44.4,39.6,47.5,41.7,38.0,97,91,78,30.69,29.69,18,7,18,0.00
2013-2-15,51.4,42.6,37.0,44.1,39.4,36.0,97,89,72,30.87,30.69,11,3,11,0.00
2013-2-16,55.2,46.6,38.5,50.7,44.0,36.6,97,91,81,30.82,30.72,14,4,14,0.00
2013-2-17,49.8,45.8,42.6,45.0,42.4,36.9,93,88,80,30.76,30.68,21,8,21,0.00
2013-2-18,46.2,43.2,40.6,39.9,38.4,36.0,93,83,76,30.79,30.62,14,6,14,0.00
2013-2-19,46.6,40.2,31.8,41.4,37.3,30.3,96,89,80,30.85,30.69,8,3,8,0.00
2013-2-20,46.6,40.4,31.3,42.0,37.2,30.3,98,89,80,30.82,30.65,16,6,16,0.00
2013-2-21,40.5,38.0,36.5,34.1,31.3,28.7,81,77,71,30.78,30.73,20,7,20,0.00
2013-2-22,39.0,36.9,34.9,30.4,28.4,26.6,75,71,65,30.77,30.73,12,5,12,0.00
2013-2-23,39.0,36.7,35.1,34.3,30.3,26.6,86,78,68,30.77,30.77,14,4,14,0.00
2013-2-24,42.6,37.3,32.0,36.0,32.2,28.9,91,82,70,30.94,30.77,10,2,10,0.03
2013-2-25,46.4,39.0,31.8,37.9,34.0,29.2,92,83,68,31.16,30.94,8,2,8,0.00
2013-2-26,45.1,41.5,35.4,39.3,37.7,33.2,93,86,77,31.14,31.09,10,4,10,0.00
2013-2-27,48.0,42.8,39.6,41.1,38.4,36.4,89,84,75,31.22,31.12,9,3,9,0.00
2013-2-28,46.4,41.0,37.4,42.0,38.2,35.0,97,90,83,31.71,31.21,8,3,8,0.00
2013-3-1,49.8,43.2,34.5,44.9,39.4,32.4,97,87,72,31.84,31.61,12,2,12,0.00
2013-3-2,48.6,39.6,28.9,41.5,35.1,27.7,96,84,69,31.68,31.58,8,2,8,0.00
2013-3-3,49.8,43.1,38.8,41.6,38.1,35.5,89,83,66,31.59,31.45,9,2,9,0.00
2013-3-4,47.7,41.6,34.0,39.1,36.2,31.9,92,81,71,31.45,31.20,12,4,12,0.00
2013-3-5,49.8,40.3,29.8,43.0,37.3,28.6,95,89,74,31.35,31.03,9,3,9,0.00
2013-3-6,49.8,45.3,42.6,46.4,43.7,40.6,97,94,87,31.35,31.18,12,3,12,0.19
2013-3-7,47.7,45.8,45.0,47.1,45.2,44.3,98,98,97,31.18,31.18,13,6,13,0.39
2013-3-8,48.4,46.7,45.3,47.8,46.2,44.8,99,98,98,31.18,31.18,13,7,13,0.25
2013-3-9,45.7,43.7,40.5,45.1,43.1,39.4,98,98,96,31.25,31.18,15,6,15,0.14
2013-3-10,43.3,39.3,34.9,39.4,32.6,20.9,96,78,56,31.33,30.37,29,13,29,0.00
2013-3-11,39.4,34.3,31.6,29.5,23.1,19.3,84,63,55,30.50,30.37,26,12,26,0.00
2013-3-12,43.3,36.8,31.8,32.6,27.4,20.2,88,69,57,30.74,30.40,15,6,15,0.00
2013-3-13,48.4,38.4,31.3,40.5,33.8,29.4,94,84,63,31.62,30.40,16,6,16,0.03
2013-3-14,50.0,39.9,29.7,42.9,35.8,27.5,93,85,74,30.70,30.42,18,6,18,0.03
2013-3-15,52.0,44.0,34.9,42.7,38.3,31.9,89,81,65,30.42,30.30,20,6,20,0.00
2013-3-16,48.0,39.2,31.8,40.4,34.9,30.0,94,85,71,30.30,30.08,11,3,11,0.03
2013-3-17,43.7,37.1,33.4,41.4,35.1,31.4,95,92,89,30.14,29.98,12,4,12,0.17
2013-3-18,47.7,40.1,34.9,41.4,37.7,33.6,97,91,75,30.03,29.29,18,5,18,0.28
2013-3-19,41.4,37.8,34.9,38.9,35.5,33.1,96,91,84,29.47,29.39,12,4,12,0.22
2013-3-20,46.9,39.5,34.5,41.7,37.3,33.5,96,92,82,29.87,29.47,12,3,12,0.08
2013-3-21,45.1,41.3,39.4,39.0,37.6,36.0,97,87,75,31.18,29.58,29,13,29,0.36
2013-3-22,41.9,40.4,37.9,41.1,39.7,37.2,98,97,97,29.66,29.50,23,8,23,1.55
2013-3-23,40.1,38.3,36.7,38.5,36.6,33.5,98,94,88,29.84,29.65,10,0,10,0.06
2013-3-24,37.2,36.3,35.1,33.4,30.6,27.8,87,80,73,29.88,29.84,20,12,20,0.00
2013-3-25,42.1,37.9,34.9,30.6,28.5,26.4,76,69,60,30.08,29.88,28,12,28,0.00
2013-3-26,41.4,36.4,33.6,33.2,29.9,26.2,88,77,67,30.06,30.01,21,9,21,0.06
2013-3-27,40.5,35.9,32.7,34.4,31.3,27.1,92,83,72,30.01,29.86,15,6,15,0.19
2013-3-28,44.1,37.4,32.5,33.9,30.6,26.9,92,77,65,29.99,29.65,15,6,15,0.08
2013-3-29,42.3,38.5,35.2,29.4,27.5,25.6,70,64,57,29.90,29.65,17,8,17,0.00
2013-3-30,48.6,40.8,35.4,30.9,27.7,25.0,70,60,45,30.05,29.82,13,6,13,0.00
2013-3-31,46.2,40.8,38.7,99.9,30.7,26.8,75,66,59,29.90,29.42,15,8,15,0.00
2013-4-1,42.6,40.2,37.8,31.0,29.7,27.4,71,66,62,29.88,29.79,15,9,15,0.00
2013-4-2,48.2,41.0,34.5,34.9,30.6,27.5,77,67,54,30.17,29.88,17,7,17,0.00
2013-4-3,48.7,41.7,34.9,35.7,32.3,28.8,84,70,55,30.30,30.10,16,7,16,0.00
2013-4-4,49.3,41.8,33.4,35.9,32.6,28.2,83,70,57,30.31,30.15,18,6,18,0.00
2013-4-5,49.3,41.1,34.7,38.4,32.8,27.9,89,73,55,30.25,30.11,15,5,15,0.00
2013-4-6,50.2,40.2,28.9,36.1,31.9,25.2,88,73,54,30.38,30.18,14,3,14,0.00
2013-4-7,50.4,41.5,30.7,40.3,35.2,27.3,92,79,63,30.18,29.78,13,5,13,0.00
2013-4-8,49.1,44.0,39.7,38.0,36.4,33.3,87,75,63,29.77,29.47,24,10,24,0.00
2013-4-9,46.6,42.0,37.4,39.4,36.3,33.6,89,80,71,29.58,29.41,27,9,27,0.00
2013-4-10,50.4,44.4,39.0,46.0,41.1,36.8,93,88,78,29.58,29.44,10,4,10,0.00
2013-4-11,48.4,44.6,43.0,47.3,43.3,40.8,98,95,91,29.44,29.24,14,3,14,0.44
2013-4-12,55.2,47.0,41.4,48.6,43.5,40.8,98,88,69,29.67,29.24,15,4,15,0.03
2013-4-13,54.1,46.7,39.2,50.1,44.7,37.3,97,93,77,29.75,29.41,16,6,16,0.06
2013-4-14,62.8,55.8,49.3,53.2,49.3,45.8,98,79,64,29.60,29.41,29,11,29,0.11
2013-4-15,65.3,55.4,48.7,49.0,46.3,43.9,92,73,47,29.90,29.52,21,10,21,0.03
2013-4-16,61.5,54.0,46.6,46.3,39.7,32.3,83,60,40,29.96,29.50,30,12,30,0.00
2013-4-17,63.5,53.1,46.2,53.9,46.7,36.8,94,79,59,29.90,29.23,38,12,38,0.00
2013-4-18,56.7,49.1,44.2,46.7,43.4,40.3,91,81,65,30.05,29.26,33,14,33,0.19
2013-4-19,58.6,48.3,39.2,47.1,40.6,37.1,93,76,53,30.48,30.05,14,5,14,0.00
2013-4-20,63.3,51.0,37.6,49.2,41.3,35.2,93,71,47,30.52,30.22,15,5,15,0.00
2013-4-21,60.6,50.9,45.7,49.0,42.7,39.8,86,74,57,30.22,29.96,23,7,23,0.03
2013-4-22,64.9,52.9,44.4,53.7,46.5,39.4,90,80,62,29.96,29.83,25,9,25,0.00
2013-4-23,65.3,56.1,46.9,51.3,48.0,42.8,92,75,58,30.22,29.95,20,7,20,0.00
2013-4-24,60.3,54.3,46.0,99.9,50.1,44.1,93,84,73,30.26,30.05,16,6,16,0.14
2013-4-25,57.7,49.1,44.8,47.4,43.6,38.0,96,82,61,30.22,30.08,16,5,16,0.33
2013-4-26,53.8,46.6,37.8,42.3,36.9,31.6,89,70,49,30.16,30.04,28,10,28,0.00
2013-4-27,53.8,47.4,39.2,40.6,38.0,34.5,84,70,56,30.22,30.03,15,6,15,0.00
2013-4-28,59.5,49.6,42.4,48.2,41.4,36.6,86,74,54,30.12,29.85,21,9,21,0.03
2013-4-29,59.4,49.0,39.7,43.6,38.7,34.7,88,69,46,30.22,29.86,24,10,24,0.03
2013-4-30,57.4,48.5,38.5,43.1,38.7,34.9,88,70,54,30.40,30.22,11,4,11,0.00
2013-5-1,60.6,51.5,41.9,49.0,42.3,36.5,85,71,47,30.32,30.21,13,5,13,0.00
2013-5-2,63.5,53.1,40.1,49.2,43.8,36.8,93,72,53,30.30,30.14,14,4,14,0.00
2013-5-3,62.2,55.7,50.4,52.3,47.3,44.8,91,74,61,30.14,29.85,22,9,22,0.06
2013-5-4,61.7,53.9,46.8,50.9,45.1,42.8,91,74,53,30.03,29.78,21,9,21,0.03
2013-5-5,66.0,59.0,53.1,53.6,50.3,46.4,87,74,58,30.13,30.01,18,8,18,0.00
2013-5-6,64.4,57.3,51.3,53.8,49.8,46.6,89,76,67,30.26,30.04,13,4,13,0.03
2013-5-7,61.7,57.1,53.4,51.0,48.2,46.4,81,72,66,30.18,29.73,10,4,10,0.00
2013-5-8,64.2,54.0,48.2,54.8,48.6,39.8,97,83,61,29.70,29.31,21,9,21,0.30
2013-5-9,57.7,50.2,46.8,50.4,44.5,38.9,88,81,69,29.54,29.18,31,12,31,0.17
2013-5-10,59.9,52.2,46.2,53.0,44.8,38.4,95,77,49,29.79,29.54,22,9,22,0.11
2013-5-11,55.2,49.6,45.3,47.8,42.9,39.2,93,78,60,29.94,29.65,26,10,26,0.14
2013-5-12,59.2,51.2,43.7,53.3,46.3,39.0,92,83,75,29.95,29.81,25,8,25,0.06
2013-5-13,53.4,48.4,43.3,44.4,40.4,37.4,85,74,61,29.83,29.69,22,11,22,0.06
2013-5-14,58.3,49.1,41.4,44.7,40.9,37.4,91,75,52,29.69,29.39,14,6,14,0.22
2013-5-15,55.2,48.1,42.1,44.3,41.2,37.6,91,78,59,29.56,29.38,24,9,24,0.03
2013-5-16,52.3,46.6,38.7,46.8,41.2,35.1,90,81,73,29.79,29.43,11,3,11,0.06
2013-5-17,56.7,49.8,40.1,48.8,42.8,37.4,92,78,61,29.97,29.61,12,4,12,0.00
2013-5-18,55.4,52.0,50.0,49.1,47.5,39.5,93,85,65,30.10,29.73,15,6,15,0.03
2013-5-19,61.5,54.8,49.1,53.0,48.3,45.5,93,80,63,30.12,29.77,12,2,12,0.00
2013-5-20,61.3,56.0,52.0,54.1,50.5,46.8,86,82,78,30.15,30.05,16,8,16,0.00
2013-5-21,64.9,59.9,51.3,51.6,49.7,46.3,83,70,61,30.24,29.30,15,8,15,0.00
2013-5-22,58.5,53.2,48.0,49.8,43.0,37.1,89,70,52,30.30,30.19,18,9,18,0.00
2013-5-23,52.9,48.2,42.4,42.4,38.3,34.6,82,69,51,30.19,29.91,24,10,24,0.00
2013-5-24,58.1,50.5,43.5,42.0,39.2,36.5,80,66,50,30.25,29.98,21,9,21,0.00
2013-5-25,59.9,53.3,42.3,48.0,44.0,37.8,86,71,60,30.29,30.18,12,4,12,0.00
2013-5-26,66.7,57.6,51.6,53.0,49.1,45.3,90,74,55,30.22,29.62,17,6,17,0.00
2013-5-27,59.7,53.2,49.5,50.3,47.6,44.0,93,82,62,29.82,29.44,16,6,16,0.28
2013-5-28,59.2,52.4,44.2,49.8,45.8,40.9,91,78,67,29.72,29.48,14,4,14,0.08
2013-5-29,67.1,57.5,48.2,54.4,49.7,45.8,95,76,58,30.04,29.68,16,8,16,0.33
2013-5-30,68.5,60.4,50.4,50.4,47.8,44.4,81,64,50,30.20,29.98,22,8,22,0.00
2013-5-31,62.4,56.7,49.6,54.4,48.2,40.8,85,74,62,30.29,30.15,15,6,15,0.00
2013-6-1,61.3,55.0,47.7,50.8,45.9,39.9,82,71,65,30.41,30.27,16,6,16,0.00
2013-6-2,64.6,57.2,50.9,52.1,48.5,42.2,84,73,61,30.50,30.38,10,4,10,0.00
2013-6-3,67.5,60.9,53.8,58.5,53.3,48.8,88,77,64,30.63,30.49,10,3,10,0.00
2013-6-4,68.0,59.6,49.3,55.8,50.4,45.7,92,73,53,30.53,30.33,9,3,9,0.00
2013-6-5,68.0,59.7,50.5,55.5,50.5,46.7,90,72,57,30.32,30.20,13,4,13,0.00
2013-6-6,65.7,59.0,50.7,55.2,51.5,47.9,91,77,65,30.33,30.17,11,4,11,0.00
2013-6-7,68.7,61.3,51.6,55.8,51.9,47.6,90,72,58,30.41,30.27,12,4,12,0.00
2013-6-8,67.8,61.6,51.8,56.9,53.0,47.3,87,74,66,30.36,30.20,10,3,10,0.00
2013-6-9,70.0,60.5,50.5,55.9,50.6,47.4,90,71,53,30.20,30.03,11,4,11,0.00
2013-6-10,67.5,59.8,51.1,55.8,50.8,46.4,85,73,57,30.03,29.86,18,5,18,0.00
2013-6-11,64.2,55.5,52.2,60.7,52.9,49.9,96,91,82,29.85,29.67,15,7,15,0.17
2013-6-21,68.7,61.9,57.2,99.9,54.9,51.6,87,77,61,30.12,29.63,20,6,17,0.03
2013-6-22,65.8,51.5,54.5,99.9,59.6,50.6,89,67,66,29.69,29.44,23,9,23,0.08
2013-6-23,53.1,0.7,52.7,99.9,99.2,46.7,80,1,80,30.15,29.69,12,5,12,0.00
2013-6-24,64.9,57.2,49.5,50.4,48.1,45.7,89,73,55,30.33,30.14,14,6,14,0.00
2013-6-25,66.0,60.5,51.3,56.8,53.1,47.2,88,77,66,30.49,30.31,6,2,6,0.00
2013-6-26,68.7,61.5,54.5,54.9,51.5,47.7,84,71,53,30.64,29.46,11,5,11,0.00
2013-6-27,64.9,59.7,53.8,61.8,55.9,47.6,92,87,77,30.54,30.27,16,6,16,0.14
2013-6-28,66.4,61.7,55.8,60.0,57.3,50.0,93,86,78,30.29,30.15,21,10,21,0.00
2013-6-29,73.2,62.7,53.6,63.4,55.9,48.6,87,79,67,30.32,30.21,18,8,18,0.00
2013-6-30,68.4,61.9,55.8,60.2,52.2,46.6,84,71,62,30.29,30.05,22,10,22,0.03
2013-7-1,66.7,62.2,55.0,51.4,48.8,47.0,76,62,55,30.17,29.95,14,6,14,0.00
2013-7-2,64.2,61.4,57.2,61.2,57.6,48.2,90,88,71,29.97,29.50,15,7,15,0.22
2013-7-3,57.0,56.9,56.8,54.1,54.0,53.9,90,90,90,29.54,29.54,8,7,8,0.00
2013-7-4,56.8,56.8,56.8,53.9,53.9,53.9,90,90,90,29.54,29.54,6,6,6,0.00
2013-7-5,56.8,56.8,56.8,53.9,53.9,53.9,90,90,90,29.54,29.54,6,6,6,0.00
2013-7-6,70.2,66.0,59.9,59.5,56.9,54.2,88,73,65,30.52,30.41,9,4,9,0.00
2013-7-7,72.5,68.3,60.3,63.6,61.2,56.5,88,78,71,30.70,30.52,7,3,7,0.00
2013-7-8,73.2,68.8,62.8,61.9,59.9,57.4,85,73,66,30.68,30.57,8,3,8,0.00
2013-7-9,79.7,70.8,58.8,62.7,59.0,55.9,91,68,49,30.59,30.46,7,2,7,0.00
2013-7-10,71.8,67.1,60.1,62.5,60.0,56.5,89,78,71,30.49,30.40,10,3,10,0.00
2013-7-11,74.7,67.0,59.0,63.3,59.3,56.5,93,77,63,30.49,30.35,8,2,8,0.00
2013-7-12,76.8,69.2,57.6,64.0,58.6,54.3,90,70,50,30.43,30.17,10,2,10,0.00
2013-7-13,76.1,68.7,59.2,64.8,60.8,55.3,88,76,64,30.49,30.34,9,4,9,0.00
2013-7-14,73.9,64.3,57.4,63.3,58.1,54.3,90,81,67,30.42,30.31,8,3,8,0.00
2013-7-15,70.0,64.2,57.9,59.3,56.7,54.2,90,77,64,30.35,30.27,13,4,13,0.00
2013-7-16,75.4,66.5,58.8,59.4,57.3,54.4,88,73,56,30.37,30.25,10,4,10,0.00
2013-7-17,75.7,68.9,63.5,63.3,59.1,55.3,80,71,59,30.45,30.32,8,2,8,0.00
2013-7-18,71.2,67.0,62.2,61.1,59.2,55.3,84,76,65,30.46,30.39,5,2,5,0.00
2013-7-19,76.5,69.8,64.8,63.7,62.1,60.5,88,77,63,30.66,30.34,9,3,9,0.00
2013-7-20,72.9,67.6,63.9,62.9,61.2,59.6,86,80,71,30.65,30.26,9,4,9,0.00
2013-7-21,66.7,64.5,63.0,60.0,58.7,57.0,86,82,76,30.56,30.09,8,3,8,0.00
2013-7-22,70.7,66.7,63.0,64.2,62.2,58.7,90,86,78,30.45,29.97,12,4,12,0.00
2013-7-23,68.4,65.1,63.7,62.5,61.4,59.3,91,88,80,29.98,29.89,7,2,7,0.00
2013-7-24,73.0,65.9,60.3,64.8,61.0,57.9,93,84,74,29.92,29.85,13,4,13,0.00
2013-7-25,70.3,64.2,60.6,66.3,61.3,58.5,93,90,85,30.47,29.85,8,3,8,0.33
2013-7-26,64.2,61.9,58.6,62.2,59.9,56.9,94,93,91,30.37,29.87,10,2,10,0.69
2013-7-27,70.2,62.0,56.3,63.7,58.6,54.9,95,89,76,30.35,29.66,11,3,11,0.00
2013-7-28,72.1,64.5,57.9,63.7,60.2,55.9,94,86,68,30.29,29.59,12,3,12,0.14
2013-7-29,70.2,64.0,59.7,62.2,58.4,54.5,94,82,71,29.89,29.62,16,5,16,0.17
2013-7-30,60.3,60.0,59.9,54.9,54.4,53.9,83,82,81,29.89,29.87,10,5,10,0.00
2013-7-31,69.3,66.7,63.7,66.9,63.9,62.0,96,91,88,29.76,29.73,16,7,16,0.30
2013-8-1,65.7,63.8,62.2,62.8,61.3,60.7,95,92,88,30.29,29.59,10,5,10,0.06
2013-8-2,65.3,63.8,62.2,62.0,58.6,56.3,96,83,77,30.16,29.57,22,7,22,0.06
2013-8-3,71.4,66.2,58.1,57.2,55.3,53.3,84,68,58,30.04,29.69,20,9,20,0.06
2013-8-10,66.7,61.9,58.6,56.6,53.5,51.1,77,74,70,30.15,30.11,19,7,19,0.00
2013-8-11,68.2,63.0,57.6,54.8,52.3,50.1,80,68,56,30.11,30.05,20,9,20,0.00
2013-8-12,66.4,61.0,55.2,56.3,51.6,47.6,84,72,57,30.19,29.90,23,8,23,0.03
2013-8-13,66.6,62.5,56.8,58.6,55.5,48.4,85,78,72,30.24,29.64,12,3,12,0.03
2013-8-14,72.9,68.3,59.2,64.1,61.8,55.0,89,80,71,30.21,29.66,9,3,9,0.00
2013-8-15,67.5,66.0,65.1,64.1,62.7,62.1,90,89,89,30.05,29.93,12,5,12,0.16
2013-8-16,66.7,62.8,58.8,60.3,56.7,55.4,94,81,72,30.00,29.87,13,3,13,0.00
2013-8-17,73.8,66.2,57.6,66.3,60.1,54.0,88,81,71,29.94,29.58,22,8,22,0.06
2013-8-18,67.5,63.1,55.9,55.3,53.0,51.1,89,70,58,30.03,29.65,16,8,16,0.03
2013-8-19,70.2,66.3,60.4,58.4,54.7,52.0,81,67,56,30.31,30.11,15,7,15,0.00
2013-8-20,69.6,64.7,60.1,56.9,55.9,54.2,82,73,61,30.32,30.01,16,6,16,0.00
2013-8-21,72.5,67.9,63.0,60.3,58.7,56.7,81,73,64,30.22,30.17,13,6,13,0.00
2013-8-22,66.7,61.7,58.8,59.5,57.7,56.4,94,87,77,30.17,29.99,12,5,12,0.00
2013-8-23,64.9,61.8,58.3,61.6,59.3,56.1,94,92,87,29.99,29.89,12,3,12,0.08
2013-8-24,64.2,61.1,58.1,56.3,53.6,50.5,93,77,65,30.13,29.96,9,3,9,0.03
2013-8-25,69.3,64.6,58.5,60.6,57.7,54.3,92,79,70,30.24,29.98,11,5,11,0.00
2013-8-26,66.7,61.6,56.3,58.2,55.6,52.7,89,81,73,30.24,30.12,10,3,10,0.00
2013-8-27,66.6,62.0,57.0,62.2,58.1,53.2,89,87,84,30.30,29.83,8,4,8,0.00
2013-8-28,67.8,63.7,59.5,58.2,55.6,51.6,88,75,65,30.32,29.99,12,4,12,0.00
2013-8-29,72.5,67.4,59.0,61.4,58.7,54.7,86,74,66,30.20,29.60,16,7,16,0.00
2013-8-30,68.5,59.8,53.6,57.5,53.3,48.2,84,79,66,30.27,29.88,20,7,20,0.03
2013-8-31,64.4,59.2,51.4,51.4,48.8,45.5,82,69,59,30.48,30.08,21,7,21,0.00
2013-9-1,66.4,61.3,54.1,54.3,51.9,47.4,80,71,64,30.46,30.37,22,10,22,0.00
2013-9-2,72.3,66.4,57.9,63.3,59.6,50.8,88,79,73,30.44,30.19,17,7,17,0.00
2013-9-3,72.7,66.7,60.1,60.7,55.4,52.5,90,68,54,30.40,30.26,10,4,10,0.00
2013-9-4,64.9,62.5,57.7,53.7,52.4,51.7,81,70,64,30.26,29.96,8,3,8,0.00
2013-9-5,63.5,59.1,54.9,54.4,46.7,44.7,75,64,52,30.00,29.93,8,4,8,0.00
2013-9-6,61.3,56.4,51.1,49.1,47.7,45.6,87,73,57,30.21,29.88,14,6,14,0.00
2013-9-7,53.8,51.3,48.6,48.4,47.0,45.7,92,85,75,30.23,29.79,21,9,21,0.17
2013-9-8,58.8,55.0,48.2,53.7,50.3,44.8,93,84,77,29.99,29.83,12,5,12,0.06
2013-9-9,63.7,58.3,48.0,52.2,50.4,44.0,89,75,65,30.31,29.95,15,7,15,0.00
2013-9-10,63.5,59.7,53.1,52.4,50.8,49.0,86,73,62,30.40,30.24,18,8,18,0.00
2013-9-11,64.6,60.8,54.1,61.6,58.1,50.7,93,91,81,30.36,30.06,15,7,15,0.00
2013-9-12,67.1,62.4,56.3,63.8,60.1,52.7,96,92,87,30.18,30.03,15,5,15,0.06
2013-9-13,58.6,55.7,51.6,52.7,48.4,46.6,91,77,67,30.43,30.07,9,4,9,0.00
2013-9-14,61.0,55.9,49.5,48.8,46.8,44.6,88,72,59,30.38,30.04,10,3,10,0.00
2013-9-15,63.9,56.7,47.8,60.6,48.6,40.9,89,75,53,30.42,29.49,30,13,30,0.00
2013-9-16,53.1,50.6,47.7,43.8,42.8,42.1,81,75,69,30.03,29.55,20,10,20,0.00
2013-9-17,51.4,51.1,50.5,50.1,49.6,49.1,95,95,93,29.95,29.38,7,2,7,0.41
2013-9-18,56.7,52.4,49.8,49.2,45.4,44.2,95,77,68,29.90,29.47,12,5,12,0.00
2013-9-19,59.5,55.3,50.4,50.2,47.9,44.7,82,76,70,29.93,29.81,26,9,26,0.17
2013-9-20,61.5,55.7,52.7,49.6,48.5,46.0,84,77,65,30.10,29.93,11,2,11,0.00
2013-9-21,74.3,67.8,54.3,65.1,61.1,49.3,92,80,71,30.30,30.07,18,5,18,0.00
2013-9-22,65.1,64.2,63.1,60.8,59.8,58.7,86,85,85,30.30,30.29,7,4,7,0.00
2013-9-23,62.4,60.7,59.5,59.4,58.4,57.3,93,92,89,30.23,30.12,12,5,12,0.00
2013-9-24,63.7,59.5,57.6,59.1,56.9,55.8,95,91,84,30.12,29.95,8,4,8,0.00
2013-9-25,58.8,58.6,57.6,56.8,56.7,56.1,96,93,93,30.10,29.90,7,3,7,0.03
2013-9-26,58.5,57.5,56.5,57.3,56.3,55.4,97,96,95,30.14,29.96,10,4,10,0.11
2013-9-27,62.2,59.3,57.4,57.0,55.9,55.3,97,89,83,30.00,29.58,8,2,11,0.00
2013-9-28,62.8,57.3,56.5,57.5,55.4,55.1,95,93,83,29.94,29.79,9,3,9,0.00
2013-9-29,57.9,57.7,57.6,55.6,55.5,55.3,93,92,92,29.79,29.78,2,1,2,0.00
2013-10-3,61.7,60.1,58.6,60.8,59.4,57.8,98,97,97,30.07,29.55,13,4,13,0.50
2013-10-4,62.1,59.1,55.2,58.8,56.8,53.1,97,92,88,30.40,29.58,12,4,12,0.06
2013-10-5,65.7,60.3,54.7,57.6,54.1,49.5,94,80,73,30.23,29.98,10,5,10,0.00
2013-10-6,56.5,55.9,55.4,49.9,49.6,49.3,81,79,78,30.21,30.19,6,3,6,0.00
2013-10-7,67.5,64.4,62.1,60.7,59.2,58.6,89,83,78,30.16,29.90,21,9,21,0.00
2013-10-8,62.1,58.5,55.8,58.9,54.1,51.9,90,85,80,30.35,29.99,14,5,14,0.00
2013-10-9,55.8,47.8,44.8,51.8,42.3,39.4,87,81,72,30.34,29.92,18,8,18,0.00
2013-10-10,54.3,50.2,47.1,42.8,40.6,39.9,79,70,60,30.40,29.85,12,6,12,0.00
2013-10-11,49.5,48.4,47.3,42.5,41.8,41.1,79,78,77,30.37,29.76,12,6,12,0.00
2013-10-12,55.8,54.9,51.6,52.6,51.2,46.9,91,87,81,30.38,30.19,10,4,10,0.00
2013-10-13,54.5,52.5,50.9,51.9,47.7,45.7,91,84,77,30.21,29.97,11,5,11,0.00
2013-10-14,53.4,51.0,47.5,48.3,46.2,43.8,89,84,78,29.97,29.89,8,4,8,0.00
2013-10-15,55.6,50.8,43.5,51.7,48.3,41.6,95,91,84,29.96,29.65,8,4,8,0.00
2013-10-16,55.0,52.5,50.9,53.5,51.1,49.5,96,95,93,29.88,29.56,13,5,13,0.80
2013-10-17,55.6,52.8,50.9,53.7,51.3,49.2,97,94,89,30.22,29.73,9,2,9,0.00
2013-10-18,56.7,55.7,54.7,56.1,55.0,53.8,98,97,97,30.19,29.48,15,6,15,0.44
2013-10-19,59.2,55.9,52.2,58.6,54.8,50.5,99,96,91,30.15,29.44,13,3,13,0.11
2013-10-20,60.6,56.2,51.8,55.6,52.9,50.2,97,89,78,29.56,29.30,20,7,20,0.03
2013-10-21,61.3,59.1,51.8,60.1,57.8,50.1,98,96,92,29.57,29.24,28,7,28,0.36
2013-10-22,61.7,58.4,55.9,59.8,56.5,54.8,97,94,86,30.40,29.07,18,4,18,0.08
2013-10-23,56.3,48.9,43.2,55.2,44.9,40.6,96,86,79,30.40,29.07,21,4,21,0.03
2013-10-24,57.0,52.2,41.5,53.9,49.9,39.6,96,92,89,29.77,29.66,13,6,13,0.17
2013-10-25,58.1,56.2,54.7,57.1,55.2,53.6,98,96,94,29.66,29.37,13,4,13,0.56
2013-10-26,56.5,52.5,49.1,53.8,49.9,46.7,96,91,80,29.94,29.20,22,7,22,0.14
2013-10-27,58.1,53.6,50.0,51.8,49.1,46.3,90,85,78,29.20,29.02,30,10,30,0.06
2013-10-28,54.9,50.3,46.6,47.8,45.5,43.8,91,84,72,29.57,29.06,22,10,22,0.00
2013-10-29,46.9,44.3,42.8,44.4,41.2,39.8,91,89,87,29.98,29.56,15,5,15,0.00
2013-10-30,59.2,51.7,41.7,55.3,48.3,39.3,93,88,79,29.99,29.72,22,6,22,0.03
2013-10-31,56.7,50.0,46.2,49.5,46.0,43.8,93,86,75,29.93,29.75,21,7,21,0.00
2013-11-1,52.0,45.4,39.4,47.0,42.2,37.6,95,89,77,29.76,29.55,11,2,11,0.00
2013-11-2,52.3,45.2,36.1,47.3,42.0,34.4,97,89,78,29.55,28.96,34,10,34,0.06
2013-11-3,49.8,44.5,41.7,43.8,40.6,38.2,93,87,76,29.50,29.23,22,7,22,0.03
2013-11-4,48.4,42.2,35.1,42.9,38.5,33.0,93,87,80,29.42,29.22,12,4,12,0.00
2013-11-5,45.1,45.1,45.1,43.0,42.8,42.7,92,92,91,29.24,29.22,4,4,4,0.00
2013-11-6,46.4,44.7,42.1,44.6,43.2,40.5,95,94,93,29.52,29.37,18,5,18,0.06
2013-11-7,47.8,45.8,41.7,43.2,42.0,40.1,94,86,83,29.59,29.29,13,6,13,0.03
2013-11-8,45.0,44.9,44.8,41.3,41.2,41.1,87,87,87,29.59,29.59,5,4,5,0.00
2013-11-9,47.3,44.7,40.8,42.7,41.3,39.0,93,88,83,29.69,29.25,13,6,13,0.00
2013-11-10,50.9,45.9,37.6,50.1,42.8,36.3,97,89,77,30.07,29.69,21,5,21,0.20
2013-11-11,53.4,51.6,50.0,50.8,49.2,47.5,97,91,89,30.16,29.88,21,5,21,0.27
2013-11-12,50.5,46.0,41.2,47.5,42.8,38.6,95,89,76,30.50,29.87,14,6,14,0.00
2013-11-13,50.5,46.9,39.2,47.4,43.9,37.0,92,89,86,30.48,29.63,23,10,23,0.03
2013-11-14,47.3,46.3,45.3,42.9,41.3,40.6,87,83,79,30.52,30.10,21,7,21,0.00
2013-11-15,51.3,48.4,45.1,47.5,44.3,41.2,88,86,84,30.55,30.48,12,5,12,0.00
2013-11-16,53.1,51.1,49.8,49.2,47.7,45.5,94,88,83,30.49,30.36,12,6,12,0.00
2013-11-17,55.2,52.8,50.7,53.5,51.4,49.3,97,95,93,30.37,29.28,7,3,7,0.06
2013-11-18,42.4,39.0,37.0,37.9,36.1,34.5,92,90,84,29.89,29.37,12,6,12,0.17
2013-11-19,36.9,36.7,36.3,34.5,34.3,33.9,91,91,91,29.88,29.87,7,6,7,0.00
2013-11-21,39.9,39.7,39.7,34.4,33.8,33.4,81,79,78,29.68,29.65,27,5,27,0.00
2013-11-22,43.5,38.2,34.7,38.8,34.6,31.5,91,87,81,29.65,29.65,7,3,7,0.00
2013-11-23,45.1,42.5,32.9,43.2,40.3,30.0,94,92,88,29.65,29.65,10,4,10,0.00
2013-11-24,47.3,45.4,44.2,43.7,42.6,40.5,95,90,86,29.65,29.65,12,3,12,0.00
2013-11-25,47.3,44.3,30.2,40.8,39.5,-20.0,90,84,10,31.82,29.65,8,3,8,0.00
2013-11-26,44.1,44.1,44.1,40.7,40.7,40.7,88,88,88,30.17,30.17,4,4,0,0.00
2013-11-27,44.1,44.1,44.1,40.7,40.7,40.7,88,88,88,30.17,30.17,4,4,0,0.00
2013-11-28,30.2,30.2,30.2,-20.0,-20.0,-20.0,10,10,10,30.99,30.99,4,4,0,0.00
2013-11-29,30.2,30.2,30.2,-20.0,-20.0,-20.0,10,10,10,30.99,30.99,4,4,0,0.00
2013-11-30,30.2,30.2,30.2,-20.0,-20.0,-20.0,10,10,10,30.99,30.99,4,4,0,0.00
2013-12-1,30.2,30.2,30.2,-20.0,-20.0,-20.0,10,10,10,30.99,30.99,4,4,0,0.00
2013-12-2,30.2,30.2,30.2,-20.0,-20.0,-20.0,10,10,10,30.99,30.99,4,4,0,0.00
2013-12-3,30.2,30.2,30.2,-20.0,-20.0,-20.0,10,10,10,30.99,30.99,4,4,0,0.00
2013-12-4,30.2,30.2,30.2,-20.0,-20.0,-20.0,10,10,10,30.99,30.99,4,4,0,0.00
2013-12-5,30.2,30.2,30.2,-20.0,-20.0,-20.0,10,10,10,30.99,30.99,4,4,0,0.00
2013-12-9,30.2,30.2,30.2,-20.0,-20.0,-20.0,10,10,10,30.99,30.99,4,4,0,0.00
2013-12-11,30.2,30.2,30.2,-20.0,-20.0,-20.0,10,10,10,30.99,30.99,4,4,0,0.00
2013-12-12,30.2,30.2,30.2,-20.0,-20.0,-20.0,10,10,10,30.99,30.99,4,0,0,0.00
2013-12-13,30.2,30.2,30.2,-20.0,-20.0,-20.0,10,10,10,30.99,30.99,0,0,0,0.00
2013-12-14,30.2,30.2,30.2,-20.0,-20.0,-20.0,10,10,10,30.99,30.99,0,0,0,0.00
2013-12-15,30.2,30.2,30.2,-20.0,-20.0,-20.0,10,10,10,30.99,30.99,0,0,0,0.00
2013-12-19,40.1,38.1,36.9,36.5,35.2,34.3,92,89,84,31.87,31.80,9,7,22,0.03
2013-12-20,52.7,49.1,47.1,49.5,44.5,41.6,90,84,80,29.52,29.42,10,8,24,0.05
2013-12-21,49.6,43.7,40.3,44.7,40.1,36.9,96,87,78,29.49,29.28,8,6,25,0.22
2013-12-22,40.1,32.6,30.2,36.3,-2.7,-20.0,93,35,10,30.99,29.34,8,2,17,0.08
2013-12-23,53.4,38.8,30.2,50.4,14.4,-20.0,96,53,10,30.99,28.32,9,5,23,0.11
2013-12-24,44.4,35.4,30.2,37.8,7.5,-20.0,93,45,10,30.99,28.34,13,6,40,0.05
2013-12-25,43.4,32.9,29.7,39.5,9.0,-20.0,96,54,10,30.99,28.58,4,2,13,0.00
2013-12-26,47.2,39.0,29.1,46.3,37.2,27.9,97,93,85,29.28,28.39,14,5,30,0.31
2013-12-27,47.1,44.0,39.2,44.1,40.2,37.0,92,87,79,28.89,28.24,14,11,36,0.05
2013-12-28,42.3,38.3,35.6,39.0,36.2,34.0,95,92,88,29.49,28.90,8,5,17,0.00
2013-12-29,51.6,41.1,33.3,48.5,38.6,31.5,94,91,86,29.79,29.40,8,5,18,0.03
2013-12-30,51.8,44.5,39.2,49.2,43.3,38.4,97,95,90,29.54,29.17,8,5,18,0.36
2013-12-31,47.8,43.9,40.6,46.1,41.0,37.4,96,90,82,29.33,29.09,10,6,26,0.17
2014-1-1,49.5,43.4,38.7,48.6,42.1,36.0,98,95,89,29.13,28.51,10,5,22,0.31
2014-1-2,47.7,44.0,40.4,46.6,41.3,38.6,97,90,82,29.11,28.75,7,5,20,0.05